www.pogodaiklimat.ru
ПОГОДА в Селинсгрове
Время
и дата
18:53 24.09
19:53 24.09
20:53 24.09
21:53 24.09
22:53 24.09
23:53 24.09
00:53 25.09
01:53 25.09
02:53 25.09
03:53 25.09
04:53 25.09
05:53 25.09
06:53 25.09
07:53 25.09
08:53 25.09
09:53 25.09
10:53 25.09
11:12 25.09
11:29 25.09
11:38 25.09
11:53 25.09
12:05 25.09
12:12 25.09
12:25 25.09
12:53 25.09
13:08 25.09
13:53 25.09
14:53 25.09
15:53 25.09
16:53 25.09
17:35 25.09
17:44 25.09
17:48 25.09
17:53 25.09
17:55 25.09
18:01 25.09
18:08 25.09
18:17 25.09
18:53 25.09
19:53 25.09
20:53 25.09
21:53 25.09
22:53 25.09
23:53 25.09
00:53 26.09
01:53 26.09
02:53 26.09
03:53 26.09
Ветер
(напр.,м/с)
Видим. Явления Облачность Т
(С)
Тd
(С)
f
(%)
Тe
(С)
Тes
(С)
Комфортность P
(гПа)
Po
(гПа)
Тmin
(С)
Tmax
(С)
R
(мм)
R24
(мм)
S
(см)
З 2 16 км 2/0 3600 m
[Ac]
+11.1 +8.9 86 +10 +10 1013.2 996.7 +10.6 +20.6
штиль 0 16 км 8/0 2700 m
[Ac]
+11.1 +9.4 89 +10 +10 1013.2 996.7
штиль 0 16 км 10/0 2100 m
[Ac]
+11.7 +10.6 93 +11 +11 1012.9 996.4
штиль 0 14 км 8/8 1800 м +10.6 +10.0 96 +10 +10 1012.8 996.4
штиль 0 16 км 10/0 2100 m
[Ac]
+11.7 +10.6 93 +11 +11 1012.5 996.1
штиль 0 16 км 10/0 2100 m
[Ac]
+12.2 +10.6 90 +12 +12 1011.7 995.4
штиль 0 16 км 10/0 2100 m
[Ac]
+12.8 +11.7 93 +12 +12 1011.3 995.1 +10.0 +12.8
штиль 0 16 км 10/10 1950 м +12.8 +10.6 86 +12 +12 1010.7 994.4
штиль 0 16 км 10/2 1800 m
[Ac]
+12.2 +11.1 93 +12 +12 1009.9 993.4
штиль 0 16 км 10/5 1800 m
[Ac]
+12.2 +11.1 93 +12 +12 1009.3 993.1
штиль 0 16 км ясно +11.7 +10.6 93 +11 +11 1008.5 992.1
штиль 0 16 км 8/8 1440 m
[Ac]
+13.3 +10.6 84 +13 +13 1008.2 992.1
штиль 0 16 км ясно +13.3 +10.6 84 +13 +13 1007.9 991.4 +11.7 +13.3
нст 2 8 км дождь, дымка 10/2 1230 m
[Ac]
+13.3 +11.7 90 +13 +13 1007.8 991.4
штиль 0 16 км 8/2 1080 m
[Ac]
+13.9 +12.8 93 +13 +15 1006.9 990.7
нст 2 16 км 10/0 2250 m
[Ac]
+14.4 +12.8 90 +14 +16 1006.3 990.1 1.3
Ю 3 16 км слабый дождь 10/5 510 m
[Ac]
+15.6 +13.9 90 +15 +16 1006.0 989.7
ЮЗ 3 16 км слабый дождь 10/8 450 m
[Ac]
+15.0 +13.3 90 +14 +15 989.4
Ю 3 16 км 8/8 420 м +16.1 +13.9 87 +16 +17 989.1
нст 3 16 км 8/5 420 m
[Ac]
+16.1 +13.9 87 +16 +18 988.7
ЮЗ 3 16 км слабый дождь 8/5 390 m
[Ac]
+16.1 +13.9 87 +16 +18 1005.0 988.7
нст 2 16 км слабый дождь 10/8 390 m
[Ac]
+16.1 +14.4 90 +16 +17 988.7
Ю 3 16 км слабый дождь 10/5 390 m
[Ac]
+16.7 +14.4 86 +16 +18 988.4
Ю 3 16 км 10/8 330 m
[Ac]
+16.7 +15.0 90 +16 +17 987.7
Ю 4 16 км 10/10 330 м +17.2 +14.4 84 +17 +17 1003.6 987.4 +13.3 +17.2 1.5
Ю 5
{7}
16 км 5/5 360 m
[Ac]
+17.8 +15.0 84 +17 +20 987.4
Ю 4 16 км 2/2 540 м +18.9 +15.0 78 +20 +26 1002.9 986.7
Ю 3
{7}
16 км ясно +19.4 +15.0 76 +21 +29 комфорт 1002.1 986.1
Ю 4 16 км ясно +20.6 +15.0 70 +24 +28 комфорт 1001.8 985.7
Ю 4 16 км 8/0 2700 m
[Ac]
+19.4 +14.4 73 +21 +22 комфорт 1001.7 985.7
Ю 3 16 км гроза 8/0 3000 m
[Ac]
+18.3 +14.4 78 +19 +19 985.4
З 4 3 км гроза с дождем 10/5 690 m
[Ac]
+16.7 +13.3 80 +16 +16 987.4
З 4 2 км гроза с сильным дождем, дымка 10/8 720 m
[Ac]
+14.0 +13.0 94 +12 +12 987.1
нст 2 1 км гроза с сильным дождем, дымка 10/8 870 m
[Ac]
+13.9 +12.2 89 +13 +13 1003.0 986.7
штиль 0 2 км гроза с сильным дождем, дымка 10/8 1050 m
[Ac]
+13.9 +12.8 93 +13 +14 986.7
штиль 0 3 км гроза со слабым дождем, дымка 10/8 1110 m
[Ac]
+13.9 +12.8 93 +13 +13 986.7
штиль 0 16 км гроза со слабым дождем 10/5 990 m
[Ac]
+13.9 +12.8 93 +13 +13 986.7
ЮВ 2 16 км слабый дождь 10/2 1200 m
[Ac]
+13.9 +13.3 96
штиль 0 16 км 8/0 3000 m
[Ac]
+13.9 +13.3 96 +13 +13 1003.3 987.1 +13.9 +20.6 9.7
ЮЗ 2 16 км 10/0 2700 m
[Ac]
+13.9 +13.3 96 +13 +13 1003.8 987.7
штиль 0 16 км 8/0 2550 m
[Ac]
+13.9 +13.3 96 +13 +13 1004.4 988.1
штиль 0 16 км 10/0 3000 m
[Ac]
+13.9 +13.3 96 +13 +13 1004.6 988.4
штиль 0 16 км 8/0 2700 m
[Ac]
+13.3 +13.3 100 +13 +13 1004.9 988.7
штиль 0 16 км 10/8 1320 m
[Ac]
+14.4 +13.3 93 +14 +14 1004.7 988.4
нст 2 16 км ясно +14.4 +12.2 87 +14 +14 1004.7 988.4 +13.3 +15.0
ЮЗ 2 16 км 2/2 1440 м +13.3 +12.2 93 +13 +13 1004.5 988.4
ЮЗ 2 16 км 8/8 1500 м +13.3 +12.2 93 +13 +13 1004.4 988.4
штиль 0 16 км 2/2 1950 м +12.2 +11.7 97 +12 +12 1004.3 988.1
Местоположение метеостанции Penn Valley Airport: широта 40.8192 долгота -76.8661 высота над уровнем моря 137 м.
В архиве по умолчанию представлена погода в Селинсгрове за последние 1-2 суток. Обновление информации о фактической погоде в базе происходит ежечасно! Архивные данные за месяц целиком и за предыдущие месяцы Вы можете получить, выбрав интересующий диапазон дат из раскрывающегося списка и нажав кнопку "Ввод!".
Внимание! Архив погоды МЕТАР в базе сайта по станциям, не включенным в климатический монитор, хранится не более 60 дней. Нет смысла пытаться выбрать более раннюю дату.
*Определитесь, кто Вы:
Внимание! Время в таблицах - местное (без учета летнего времени). Для получения всемирного времени необходимо вычесть поправку, которая равна -5 ч.
Смотрите также архив погоды в соседних городах и на ближайших метеорологических станциях:
Партнеры нашего сайта:      
Пояснения к столбцам:
  • Ветер - указаны скорость ветра в м/с - средняя за 10 мин, порывы в срок и между сроками (в фигурных скобках) и направление, откуда дует ветер: С - северный,
  • СВ - северо-восточный, В - восточный, ЮВ - юго-восточный, Ю - южный, ЮЗ - юго-западный, З - западный, СЗ - северо-западный.
  • Видимость - горизонтальная дальность видимости в метрах или километрах. При видимости от 1 до 10 км при отсутствии осадков обычно наблюдается дымка, при ухудшении видимости до 1 км и менее - туман. В сухую погоду видимость может ухудшаться дымом, пылью или мглою.
  • Явления - указаны атмосферные явления, наблюдавшиеся в срок или в последний час перед сроком; фигурными скобками обозначены явления, наблюдавшиеся между сроками (за 1-3 часа до срока); квадратными скобками обозначены град или гололедные отложения с указанием их диаметра в мм.
  • Облачность - указаны через наклонную черту общая и нижняя облачность в баллах и высота нижней границы облаков в метрах; квадратными скобками обозначены формы облаков: Ci - перистые, Cs - перисто-слоистые, Cc - перисто-кучевые, Ac - высококучевые, As - высокослоистые, Sc - слоисто-кучевые, Ns - слоисто-дождевые, Cu - кучевые, Cb - кучево-дождевые. Подробнее классификацию облаков см. в Атласе облаков (PDF).
  • T - Температура воздуха - температура, измеренная на высоте 2 м над землей.
  • Td - Температура точки росы - температура, при понижении до которой содержащийся в воздухе водяной пар достигнет насыщения.
  • f - Относительная влажность воздуха - влажноcть воздуха, измеренная на высоте 2 м над землей.
  • Te - Эффективная температура - температура, которую ощущает одетый по сезону человек в тени. Характеристика душности погоды. При расчете учитывается влияние влажности воздуха и скорости ветра на теплоощущения человека.
  • Tes - Эффективная температура на солнце - температура, которую ощущает человек, с поправкой на солнечный нагрев. Характеристика знойности погоды. Зависит от высоты солнца над горизонтом, облачности и скорости ветра. Ночью, в пасмурную погоду, а также при ветре 12 м/с и более поправка равна нулю.
  • P - Атмосферное давление - приведенное к уровню моря атмосферное давление.
  • Po - Атмосферное давление - измеренное на уровне метеостанции атмосферное давление.
  • Tmin - Минимальная температура - минимум температуры воздуха на высоте 2 м над землей.
  • Tmax - Максимальная температура - максимум температуры воздуха на высоте 2 м над землей.
  • R - Количество осадков - Количество выпавших осадков за период времени, мм. При наведении курсора мыши на число - период времени, за который выпало указанное количество осадков.
  • R24 - Количество осадков - Количество выпавших осадков за 24 часа, мм.
  • S - Снежный покров - Высота снежного покрова, см. При наведении курсора мыши на число - состояние снежного покрова и степень покрытия местности в баллах.